| time (UTC) | temp F | wind direction | speed knots | gust knots | rain 1hr in | rain 24hr in | rain mn in | humidity % | barometer mb |
| 20260507075629 | 61 | 0 | 4.3 | 10.4 | 0.00 | 0.00 | 0.00 | 77 | 1004.5 |
| 20260507075129 | 60 | 5 | 4.3 | 11.3 | 0.00 | 0.00 | 0.00 | 76 | 1004.5 |
| 20260507074631 | 60 | 9 | 5.2 | 11.3 | 0.00 | 0.00 | 0.00 | 76 | 1004.5 |
| 20260507074118 | 60 | 19 | 5.2 | 10.4 | 0.00 | 0.00 | 0.00 | 76 | 1004.4 |
| 20260507073616 | 60 | 351 | 5.2 | 10.4 | 0.00 | 0.00 | 0.00 | 77 | 1004.4 |
| 20260507073112 | 60 | 20 | 4.3 | 8.7 | 0.00 | 0.00 | 0.00 | 78 | 1004.4 |
| 20260507072618 | 60 | 336 | 3.5 | 8.7 | 0.00 | 0.00 | 0.00 | 78 | 1004.4 |
| 20260507072112 | 60 | 10 | 1.7 | 5.2 | 0.00 | 0.00 | 0.00 | 81 | 1004.3 |
| 20260507071610 | 59 | 32 | 0.9 | 4.3 | 0.00 | 0.00 | 0.00 | 83 | 1004.2 |
| 20260507071111 | 59 | 30 | 0.9 | 2.6 | 0.00 | 0.00 | 0.00 | 84 | 1004.3 |
| 20260507070608 | 58 | 28 | 0.0 | 2.6 | 0.00 | 0.00 | 0.00 | 85 | 1004.3 |
| 20260507070529 | 57 | 28 | 0.0 | 1.7 | 0.00 | 0.00 | 0.00 | 85 | 1004.3 |
| 20260507065941 | 56 | 28 | 0.0 | 0.0 | 0.00 | 0.00 | 0.00 | 85 | 1004.2 |
| 20260507065106 | 56 | 28 | 0.0 | 0.0 | 0.00 | 0.00 | 0.00 | 84 | 1004.2 |
| 20260507064604 | 56 | 28 | 0.0 | 0.0 | 0.00 | 0.00 | 0.00 | 85 | 1004.2 |
| 20260507064101 | 55 | 28 | 0.0 | 0.0 | 0.00 | 0.00 | 0.00 | 85 | 1004.2 |
| 20260507063603 | 55 | 28 | 0.0 | 0.0 | 0.00 | 0.00 | 0.00 | 86 | 1004.2 |
| 20260507063109 | 55 | 28 | 0.0 | 0.9 | 0.00 | 0.00 | 0.00 | 85 | 1004.2 |
| 20260507062933 | 55 | 28 | 0.0 | 0.9 | 0.00 | 0.00 | 0.00 | 85 | 1004.2 |
| 20260507062437 | 55 | 28 | 0.0 | 0.9 | 0.00 | 0.00 | 0.00 | 86 | 1004.2 |
| 20260507061603 | 54 | 28 | 0.0 | 0.9 | 0.00 | 0.00 | 0.00 | 86 | 1004.2 |
| 20260507061104 | 54 | 27 | 0.0 | 1.7 | 0.00 | 0.00 | 0.00 | 86 | 1004.2 |
| 20260507060604 | 54 | 27 | 0.0 | 1.7 | 0.00 | 0.00 | 0.00 | 86 | 1004.1 |
| 20260507060055 | 54 | 28 | 0.0 | 0.9 | 0.00 | 0.00 | 0.00 | 87 | 1004.1 |
| 20260507055554 | 54 | 28 | 0.0 | 0.9 | 0.00 | 0.00 | 0.00 | 87 | 1004.0 |
| 20260507055048 | 53 | 30 | 0.0 | 0.9 | 0.00 | 0.00 | 0.00 | 86 | 1004.0 |
| 20260507054543 | 53 | 30 | 0.0 | 0.9 | 0.00 | 0.00 | 0.00 | 86 | 1003.9 |
| 20260507054032 | 53 | 30 | 0.0 | 0.9 | 0.00 | 0.00 | 0.00 | 87 | 1003.8 |
| 20260507053529 | 53 | 19 | 0.0 | 0.9 | 0.00 | 0.00 | 0.00 | 87 | 1003.7 |
| 20260507053212 | 53 | 17 | 0.0 | 0.9 | 0.00 | 0.00 | 0.00 | 86 | 1003.8 |
| 20260507053127 | 53 | 19 | 0.0 | 0.9 | 0.00 | 0.00 | 0.00 | 87 | 1003.7 |
| 20260507052013 | 53 | 19 | 0.0 | 0.0 | 0.00 | 0.00 | 0.00 | 85 | 1003.8 |
| 20260507051505 | 54 | 19 | 0.0 | 0.0 | 0.00 | 0.00 | 0.00 | 86 | 1003.8 |
| 20260507050959 | 54 | 19 | 0.0 | 0.0 | 0.00 | 0.00 | 0.00 | 86 | 1003.8 |
| 20260507050455 | 54 | 19 | 0.0 | 0.0 | 0.00 | 0.00 | 0.00 | 85 | 1003.8 |
| 20260507045950 | 54 | 19 | 0.0 | 0.0 | 0.00 | 0.00 | 0.00 | 85 | 1003.9 |
| 20260507045811 | 54 | 19 | 0.0 | 0.9 | 0.00 | 0.00 | 0.00 | 85 | 1003.8 |
| 20260507044945 | 54 | 19 | 0.0 | 2.6 | 0.00 | 0.00 | 0.00 | 85 | 1003.8 |
| 20260507044442 | 54 | 19 | 0.0 | 2.6 | 0.00 | 0.00 | 0.00 | 85 | 1003.9 |
| 20260507043944 | 55 | 19 | 0.0 | 0.9 | 0.00 | 0.00 | 0.00 | 85 | 1003.8 |
| 20260507043438 | 55 | 18 | 0.0 | 1.7 | 0.00 | 0.00 | 0.00 | 85 | 1003.8 |
| 20260507042937 | 55 | 19 | 0.0 | 1.7 | 0.00 | 0.00 | 0.00 | 85 | 1003.8 |
| 20260507042439 | 55 | 18 | 0.0 | 2.6 | 0.00 | 0.00 | 0.00 | 85 | 1003.9 |
| 20260507041938 | 55 | 18 | 0.9 | 2.6 | 0.00 | 0.00 | 0.00 | 85 | 1003.9 |
| 20260507041757 | 55 | 19 | 0.9 | 3.5 | 0.00 | 0.00 | 0.00 | 85 | 1004.0 |
| 20260507040935 | 55 | 19 | 1.7 | 3.5 | 0.00 | 0.00 | 0.00 | 85 | 1004.0 |
| 20260507040815 | 55 | 19 | 0.9 | 3.5 | 0.00 | 0.00 | 0.00 | 85 | 1004.0 |
| 20260507040330 | 55 | 19 | 0.9 | 3.5 | 0.00 | 0.00 | 0.00 | 85 | 1004.1 |
| 20260507035432 | 55 | 19 | 0.9 | 3.5 | 0.00 | 0.00 | 0.00 | 85 | 1004.1 |
| 20260507034930 | 55 | 18 | 0.9 | 3.5 | 0.00 | 0.00 | 0.00 | 85 | 1004.2 |
| 20260507034431 | 55 | 17 | 1.7 | 4.3 | 0.00 | 0.00 | 0.00 | 85 | 1004.2 |
| 20260507033930 | 55 | 27 | 1.7 | 4.3 | 0.00 | 0.00 | 0.00 | 85 | 1004.3 |
| 20260507033429 | 55 | 23 | 1.7 | 4.3 | 0.00 | 0.00 | 0.00 | 85 | 1004.3 |
| 20260507032930 | 55 | 17 | 2.6 | 5.2 | 0.00 | 0.00 | 0.00 | 85 | 1004.3 |
| 20260507032432 | 55 | 13 | 1.7 | 5.2 | 0.00 | 0.00 | 0.00 | 85 | 1004.3 |
| 20260507031929 | 55 | 21 | 1.7 | 4.3 | 0.00 | 0.00 | 0.00 | 85 | 1004.4 |
| 20260507031747 | 55 | 21 | 2.6 | 4.3 | 0.00 | 0.00 | 0.00 | 85 | 1004.4 |
| 20260507030918 | 55 | 11 | 2.6 | 5.2 | 0.00 | 0.00 | 0.00 | 86 | 1004.5 |
| 20260507030407 | 55 | 11 | 1.7 | 5.2 | 0.00 | 0.00 | 0.00 | 86 | 1004.6 |
| 20260507025906 | 55 | 355 | 1.7 | 3.5 | 0.00 | 0.00 | 0.00 | 86 | 1004.6 |
| 20260507025400 | 55 | 11 | 1.7 | 3.5 | 0.00 | 0.00 | 0.00 | 86 | 1004.6 |
| 20260507025151 | 55 | 14 | 0.9 | 3.5 | 0.00 | 0.00 | 0.00 | 86 | 1004.7 |
| 20260507025023 | 55 | 15 | 0.0 | 0.9 | 0.00 | 0.00 | 0.00 | 85 | 1004.6 |
| 20260507024932 | 55 | 14 | 0.9 | 3.5 | 0.00 | 0.00 | 0.00 | 86 | 1004.7 |
| 20260507024510 | 54 | 15 | 0.0 | 2.6 | 0.00 | 0.00 | 0.00 | 85 | 1004.7 |
| 20260507023332 | 55 | 15 | 0.0 | 0.9 | 0.00 | 0.00 | 0.00 | 85 | 1004.7 |
| 20260507022828 | 55 | 15 | 0.0 | 2.6 | 0.00 | 0.00 | 0.00 | 85 | 1004.7 |
| 20260507022706 | 55 | 15 | 0.9 | 3.5 | 0.00 | 0.00 | 0.00 | 85 | 1004.7 |
| 20260507021821 | 55 | 15 | 0.0 | 3.5 | 0.00 | 0.00 | 0.00 | 84 | 1004.7 |
| 20260507021312 | 55 | 15 | 0.9 | 4.3 | 0.00 | 0.00 | 0.00 | 84 | 1004.7 |
| 20260507020804 | 55 | 15 | 1.7 | 6.1 | 0.00 | 0.00 | 0.00 | 84 | 1004.8 |
| 20260507020620 | 56 | 16 | 2.6 | 6.1 | 0.00 | 0.00 | 0.00 | 85 | 1004.7 |
| 20260507015754 | 56 | 0 | 2.6 | 5.2 | 0.00 | 0.00 | 0.00 | 84 | 1004.7 |
| 20260507015244 | 56 | 17 | 1.7 | 4.3 | 0.00 | 0.00 | 0.00 | 84 | 1004.8 |
| 20260507014736 | 56 | 17 | 1.7 | 4.3 | 0.00 | 0.00 | 0.00 | 84 | 1004.8 |
| 20260507014235 | 56 | 17 | 2.6 | 4.3 | 0.00 | 0.00 | 0.00 | 84 | 1004.9 |
| 20260507013735 | 56 | 13 | 3.5 | 5.2 | 0.00 | 0.00 | 0.00 | 84 | 1005.0 |
| 20260507013232 | 56 | 32 | 2.6 | 5.2 | 0.00 | 0.00 | 0.00 | 84 | 1004.9 |
| 20260507012734 | 56 | 23 | 2.6 | 5.2 | 0.00 | 0.00 | 0.00 | 84 | 1005.0 |
| 20260507012231 | 56 | 5 | 2.6 | 6.1 | 0.00 | 0.00 | 0.00 | 84 | 1005.1 |
| 20260507011732 | 56 | 0 | 1.7 | 6.1 | 0.00 | 0.00 | 0.00 | 84 | 1005.1 |
| 20260507011229 | 56 | 350 | 1.7 | 2.6 | 0.00 | 0.00 | 0.00 | 84 | 1005.2 |
| 20260507010729 | 56 | 349 | 1.7 | 5.2 | 0.00 | 0.00 | 0.00 | 84 | 1005.2 |
| 20260507010616 | 56 | 348 | 0.9 | 5.2 | 0.00 | 0.00 | 0.00 | 83 | 1005.2 |
| 20260507005730 | 56 | 10 | 0.9 | 4.3 | 0.00 | 0.00 | 0.00 | 83 | 1005.3 |
| 20260507005233 | 56 | 10 | 1.7 | 4.3 | 0.00 | 0.00 | 0.00 | 83 | 1005.3 |
| 20260507004733 | 56 | 11 | 2.6 | 5.2 | 0.00 | 0.00 | 0.00 | 83 | 1005.3 |
| 20260507004232 | 56 | 11 | 2.6 | 5.2 | 0.00 | 0.00 | 0.00 | 83 | 1005.3 |
| 20260507003732 | 57 | 15 | 1.7 | 4.3 | 0.00 | 0.00 | 0.00 | 83 | 1005.3 |
| 20260507003232 | 57 | 19 | 1.7 | 5.2 | 0.00 | 0.00 | 0.00 | 83 | 1005.3 |
| 20260507003010 | 57 | 9 | 1.7 | 4.3 | 0.00 | 0.00 | 0.00 | 83 | 1005.3 |
| 20260507002902 | 57 | 20 | 1.7 | 5.2 | 0.00 | 0.00 | 0.00 | 83 | 1005.3 |
| 20260507002139 | 57 | 9 | 1.7 | 6.1 | 0.00 | 0.00 | 0.00 | 83 | 1005.3 |
| 20260507001230 | 57 | 9 | 1.7 | 6.1 | 0.00 | 0.00 | 0.00 | 83 | 1005.4 |
| 20260507000730 | 57 | 5 | 1.7 | 5.2 | 0.00 | 0.00 | 0.00 | 82 | 1005.4 |
| 20260507000233 | 57 | 24 | 2.6 | 5.2 | 0.00 | 0.00 | 0.00 | 82 | 1005.5 |
| 20260507000116 | 57 | 5 | 2.6 | 6.1 | 0.00 | 0.00 | 0.00 | 82 | 1005.6 |
| 20260506235853 | 57 | 24 | 2.6 | 5.2 | 0.00 | 0.00 | 0.00 | 82 | 1005.5 |
| 20260506235230 | 57 | 5 | 2.6 | 6.1 | 0.00 | 0.00 | 0.00 | 82 | 1005.6 |
| 20260506235115 | 57 | 11 | 3.5 | 7.0 | 0.00 | 0.00 | 0.00 | 82 | 1005.6 |
| 20260506234228 | 57 | 27 | 3.5 | 7.0 | 0.00 | 0.00 | 0.00 | 82 | 1005.6 |
| 20260506234148 | 57 | 34 | 4.3 | 7.0 | 0.00 | 0.00 | 0.00 | 82 | 1005.5 |
| 20260506233227 | 57 | 16 | 4.3 | 7.0 | 0.00 | 0.00 | 0.00 | 82 | 1005.6 |
| 20260506232729 | 57 | 13 | 4.3 | 9.6 | 0.00 | 0.00 | 0.00 | 82 | 1005.6 |
| 20260506232228 | 57 | 29 | 4.3 | 9.6 | 0.00 | 0.00 | 0.00 | 82 | 1005.6 |
| 20260506231729 | 57 | 13 | 3.5 | 7.0 | 0.00 | 0.00 | 0.00 | 82 | 1005.6 |
| 20260506231228 | 57 | 26 | 3.5 | 7.0 | 0.00 | 0.00 | 0.00 | 82 | 1005.5 |
| 20260506230729 | 57 | 34 | 3.5 | 8.7 | 0.00 | 0.00 | 0.00 | 83 | 1005.6 |
| 20260506230227 | 57 | 19 | 4.3 | 8.7 | 0.00 | 0.00 | 0.00 | 83 | 1005.6 |
| 20260506225728 | 57 | 26 | 3.5 | 8.7 | 0.00 | 0.00 | 0.00 | 82 | 1005.6 |
| 20260506225221 | 57 | 5 | 3.5 | 7.8 | 0.00 | 0.00 | 0.00 | 82 | 1005.5 |
| 20260506224709 | 57 | 36 | 3.5 | 6.1 | 0.00 | 0.00 | 0.00 | 81 | 1005.6 |
| 20260506224205 | 57 | 40 | 3.5 | 7.0 | 0.00 | 0.00 | 0.00 | 81 | 1005.6 |
| 20260506223702 | 57 | 32 | 3.5 | 7.0 | 0.00 | 0.00 | 0.00 | 81 | 1005.7 |
| 20260506223521 | 57 | 33 | 4.3 | 7.0 | 0.00 | 0.00 | 0.00 | 81 | 1005.7 |
| 20260506222703 | 58 | 19 | 4.3 | 7.0 | 0.00 | 0.00 | 0.00 | 81 | 1005.7 |
| 20260506222203 | 58 | 31 | 4.3 | 9.6 | 0.00 | 0.00 | 0.00 | 81 | 1005.8 |
| 20260506221702 | 58 | 41 | 5.2 | 9.6 | 0.00 | 0.00 | 0.00 | 81 | 1005.8 |
| 20260506221202 | 58 | 26 | 5.2 | 8.7 | 0.00 | 0.00 | 0.00 | 80 | 1005.8 |
| 20260506220702 | 58 | 27 | 4.3 | 7.8 | 0.00 | 0.00 | 0.00 | 80 | 1005.8 |
| 20260506220203 | 58 | 21 | 6.1 | 12.2 | 0.00 | 0.00 | 0.00 | 80 | 1005.9 |
| 20260506215702 | 58 | 24 | 7.0 | 12.2 | 0.00 | 0.00 | 0.00 | 80 | 1005.9 |
| 20260506215202 | 58 | 22 | 7.0 | 13.9 | 0.00 | 0.00 | 0.00 | 80 | 1005.9 |
| 20260506214702 | 58 | 21 | 7.8 | 13.9 | 0.00 | 0.00 | 0.00 | 80 | 1005.9 |
| 20260506214202 | 58 | 11 | 7.0 | 13.9 | 0.00 | 0.00 | 0.00 | 80 | 1006.0 |
| 20260506213703 | 58 | 342 | 5.2 | 13.0 | 0.00 | 0.00 | 0.00 | 80 | 1006.0 |
| 20260506213201 | 59 | 13 | 4.3 | 8.7 | 0.00 | 0.00 | 0.00 | 81 | 1006.0 |
| 20260506212702 | 59 | 11 | 5.2 | 10.4 | 0.00 | 0.00 | 0.00 | 81 | 1006.1 |
| 20260506212201 | 59 | 22 | 6.1 | 10.4 | 0.00 | 0.00 | 0.00 | 81 | 1006.0 |
| 20260506211701 | 59 | 23 | 6.1 | 10.4 | 0.00 | 0.00 | 0.00 | 81 | 1006.0 |
| 20260506211150 | 58 | 20 | 6.1 | 11.3 | 0.00 | 0.00 | 0.00 | 80 | 1006.0 |
| 20260506210638 | 59 | 9 | 7.8 | 13.0 | 0.00 | 0.00 | 0.00 | 80 | 1005.9 |
| 20260506210132 | 58 | 15 | 7.8 | 13.0 | 0.00 | 0.00 | 0.00 | 80 | 1005.9 |
| 20260506205631 | 59 | 18 | 7.8 | 14.8 | 0.00 | 0.00 | 0.00 | 81 | 1005.8 |
| 20260506205509 | 59 | 13 | 7.0 | 14.8 | 0.00 | 0.00 | 0.00 | 81 | 1005.8 |
| 20260506204633 | 59 | 19 | 5.2 | 10.4 | 0.00 | 0.00 | 0.00 | 81 | 1005.9 |
| 20260506204131 | 59 | 5 | 6.1 | 13.9 | 0.00 | 0.00 | 0.00 | 81 | 1005.9 |
| 20260506203630 | 59 | 15 | 7.0 | 13.9 | 0.00 | 0.00 | 0.00 | 81 | 1005.8 |
| 20260506203457 | 59 | 19 | 6.1 | 10.4 | 0.00 | 0.00 | 0.00 | 81 | 1005.8 |
| 20260506202951 | 59 | 18 | 6.1 | 10.4 | 0.00 | 0.00 | 0.00 | 81 | 1005.8 |
| 20260506202132 | 59 | 5 | 6.1 | 10.4 | 0.00 | 0.00 | 0.00 | 81 | 1005.8 |
| 20260506201630 | 59 | 19 | 5.2 | 9.6 | 0.00 | 0.00 | 0.00 | 80 | 1005.8 |
| 20260506201130 | 59 | 19 | 6.1 | 10.4 | 0.00 | 0.00 | 0.00 | 80 | 1005.7 |
| 20260506200633 | 59 | 17 | 7.0 | 12.2 | 0.00 | 0.00 | 0.00 | 80 | 1005.7 |
| 20260506200131 | 59 | 11 | 7.8 | 13.0 | 0.00 | 0.00 | 0.00 | 80 | 1005.7 |
| 20260506195634 | 59 | 30 | 7.8 | 13.0 | 0.00 | 0.00 | 0.00 | 80 | 1005.6 |
| 20260506195133 | 60 | 30 | 7.8 | 13.0 | 0.00 | 0.00 | 0.00 | 80 | 1005.7 |
| 20260506194638 | 60 | 27 | 8.7 | 14.8 | 0.00 | 0.00 | 0.00 | 79 | 1005.6 |
| 20260506194144 | 60 | 5 | 8.7 | 14.8 | 0.00 | 0.00 | 0.00 | 79 | 1005.6 |
| 20260506193636 | 60 | 13 | 8.7 | 13.9 | 0.00 | 0.00 | 0.00 | 79 | 1005.7 |
| 20260506193122 | 60 | 32 | 7.8 | 13.9 | 0.00 | 0.00 | 0.00 | 79 | 1005.6 |
| 20260506192621 | 60 | 355 | 7.8 | 13.0 | 0.00 | 0.00 | 0.00 | 79 | 1005.6 |
| 20260506192133 | 60 | 0 | 9.6 | 15.6 | 0.00 | 0.00 | 0.00 | 78 | 1005.5 |
| 20260506191946 | 61 | 26 | 8.7 | 15.6 | 0.00 | 0.00 | 0.00 | 77 | 1005.4 |
| 20260506191117 | 61 | 16 | 8.7 | 14.8 | 0.00 | 0.00 | 0.00 | 77 | 1005.5 |
| 20260506190620 | 61 | 32 | 7.8 | 14.8 | 0.00 | 0.00 | 0.00 | 77 | 1005.5 |
| 20260506190442 | 61 | 26 | 7.8 | 13.0 | 0.00 | 0.00 | 0.00 | 77 | 1005.4 |
| 20260506185809 | 62 | 0 | 10.4 | 17.4 | 0.00 | 0.00 | 0.00 | 76 | 1005.4 |
| 20260506185733 | 61 | 5 | 8.7 | 15.6 | 0.00 | 0.00 | 0.00 | 77 | 1005.4 |
| 20260506184614 | 62 | 351 | 11.3 | 18.2 | 0.00 | 0.00 | 0.00 | 77 | 1005.4 |
| 20260506184107 | 62 | 0 | 10.4 | 18.2 | 0.00 | 0.00 | 0.00 | 75 | 1005.4 |
| 20260506183607 | 62 | 21 | 10.4 | 16.5 | 0.00 | 0.00 | 0.00 | 75 | 1005.4 |
| 20260506183107 | 62 | 350 | 10.4 | 17.4 | 0.00 | 0.00 | 0.00 | 75 | 1005.5 |
| 20260506182606 | 63 | 21 | 8.7 | 17.4 | 0.00 | 0.00 | 0.00 | 74 | 1005.4 |
| 20260506182119 | 63 | 32 | 8.7 | 15.6 | 0.00 | 0.00 | 0.00 | 74 | 1005.4 |
| 20260506181607 | 63 | 38 | 8.7 | 15.6 | 0.00 | 0.00 | 0.00 | 74 | 1005.4 |
| 20260506181106 | 63 | 14 | 8.7 | 15.6 | 0.00 | 0.00 | 0.00 | 74 | 1005.4 |
| 20260506180606 | 63 | 347 | 10.4 | 17.4 | 0.00 | 0.00 | 0.00 | 74 | 1005.4 |
| 20260506180108 | 63 | 5 | 9.6 | 17.4 | 0.00 | 0.00 | 0.00 | 74 | 1005.5 |
| 20260506175607 | 63 | 23 | 9.6 | 15.6 | 0.00 | 0.00 | 0.00 | 74 | 1005.5 |
| 20260506175107 | 63 | 9 | 10.4 | 15.6 | 0.00 | 0.00 | 0.00 | 75 | 1005.6 |
| 20260506174606 | 63 | 20 | 10.4 | 16.5 | 0.00 | 0.00 | 0.00 | 74 | 1005.6 |
| 20260506174106 | 63 | 16 | 10.4 | 17.4 | 0.00 | 0.00 | 0.00 | 74 | 1005.6 |
| 20260506173606 | 64 | 347 | 9.6 | 17.4 | 0.00 | 0.00 | 0.00 | 72 | 1005.6 |
| 20260506173416 | 64 | 20 | 9.6 | 14.8 | 0.00 | 0.00 | 0.00 | 72 | 1005.6 |
| 20260506172606 | 64 | 19 | 10.4 | 16.5 | 0.00 | 0.00 | 0.00 | 71 | 1005.6 |
| 20260506172108 | 65 | 9 | 11.3 | 16.5 | 0.00 | 0.00 | 0.00 | 71 | 1005.6 |
| 20260506171602 | 65 | 26 | 11.3 | 17.4 | 0.00 | 0.00 | 0.00 | 69 | 1005.7 |
| 20260506171104 | 65 | 44 | 10.4 | 17.4 | 0.00 | 0.00 | 0.00 | 71 | 1005.7 |
| 20260506170847 | 65 | 32 | 10.4 | 18.2 | 0.00 | 0.00 | 0.00 | 71 | 1005.7 |
| 20260506165605 | 65 | 11 | 10.4 | 18.2 | 0.00 | 0.00 | 0.00 | 69 | 1005.7 |
| 20260506165103 | 65 | 17 | 9.6 | 18.2 | 0.00 | 0.00 | 0.00 | 69 | 1005.8 |
| 20260506164905 | 65 | 321 | 9.6 | 18.2 | 0.00 | 0.00 | 0.00 | 69 | 1005.8 |
| 20260506164403 | 65 | 0 | 10.4 | 18.2 | 0.00 | 0.00 | 0.00 | 69 | 1005.7 |
| 20260506163913 | 65 | 17 | 12.2 | 18.2 | 0.00 | 0.00 | 0.00 | 68 | 1005.8 |
| 20260506163102 | 65 | 355 | 10.4 | 18.2 | 0.00 | 0.00 | 0.00 | 67 | 1005.9 |
| 20260506162603 | 66 | 345 | 9.6 | 16.5 | 0.00 | 0.00 | 0.00 | 67 | 1005.9 |
| 20260506162103 | 66 | 11 | 9.6 | 15.6 | 0.00 | 0.00 | 0.00 | 68 | 1006.0 |
| 20260506161604 | 66 | 327 | 9.6 | 15.6 | 0.00 | 0.00 | 0.00 | 68 | 1005.9 |
| 20260506161103 | 66 | 348 | 10.4 | 17.4 | 0.00 | 0.00 | 0.00 | 67 | 1006.0 |
| 20260506160602 | 66 | 9 | 9.6 | 17.4 | 0.00 | 0.00 | 0.00 | 66 | 1005.9 |
| 20260506155602 | 66 | 5 | 9.6 | 15.6 | 0.00 | 0.00 | 0.00 | 69 | 1005.9 |
| 20260506155104 | 66 | 20 | 10.4 | 17.4 | 0.00 | 0.00 | 0.00 | 69 | 1005.9 |
| 20260506154602 | 67 | 5 | 8.7 | 17.4 | 0.00 | 0.00 | 0.00 | 68 | 1006.0 |
| 20260506154408 | 67 | 355 | 8.7 | 14.8 | 0.00 | 0.00 | 0.00 | 70 | 1006.0 |
| 20260506153603 | 66 | 5 | 10.4 | 15.6 | 0.00 | 0.00 | 0.00 | 71 | 1006.0 |
| 20260506153103 | 66 | 35 | 10.4 | 16.5 | 0.00 | 0.00 | 0.00 | 70 | 1006.0 |
| 20260506152602 | 66 | 355 | 10.4 | 16.5 | 0.00 | 0.00 | 0.00 | 68 | 1006.0 |
| 20260506152102 | 66 | 5 | 11.3 | 16.5 | 0.00 | 0.00 | 0.00 | 70 | 1006.1 |
| 20260506151602 | 66 | 330 | 10.4 | 19.1 | 0.00 | 0.00 | 0.00 | 69 | 1006.1 |
| 20260506151338 | 66 | 337 | 9.6 | 15.6 | 0.00 | 0.00 | 0.00 | 70 | 1006.4 |
| 20260506151253 | 66 | 20 | 10.4 | 19.1 | 0.00 | 0.00 | 0.00 | 70 | 1006.2 |
| 20260506151027 | 66 | 348 | 9.6 | 15.6 | 0.00 | 0.00 | 0.00 | 70 | 1006.3 |
| 20260506145603 | 66 | 13 | 9.6 | 15.6 | 0.00 | 0.00 | 0.00 | 70 | 1006.4 |
| 20260506145102 | 66 | 22 | 7.8 | 15.6 | 0.00 | 0.00 | 0.00 | 70 | 1006.6 |
| 20260506144601 | 66 | 331 | 8.7 | 16.5 | 0.00 | 0.00 | 0.00 | 71 | 1006.7 |
| 20260506144102 | 66 | 0 | 8.7 | 16.5 | 0.00 | 0.00 | 0.00 | 71 | 1006.7 |
| 20260506143602 | 66 | 5 | 8.7 | 15.6 | 0.00 | 0.00 | 0.00 | 72 | 1006.7 |
| 20260506143102 | 65 | 5 | 8.7 | 14.8 | 0.00 | 0.00 | 0.00 | 72 | 1006.8 |
| 20260506142604 | 66 | 336 | 7.8 | 15.6 | 0.00 | 0.00 | 0.00 | 71 | 1006.8 |
| 20260506142236 | 66 | 5 | 8.7 | 13.9 | 0.00 | 0.00 | 0.00 | 71 | 1006.8 |
| 20260506142207 | 66 | 10 | 7.8 | 15.6 | 0.00 | 0.00 | 0.00 | 71 | 1006.9 |
| 20260506141357 | 66 | 22 | 9.6 | 15.6 | 0.00 | 0.00 | 0.00 | 71 | 1006.8 |
| 20260506140904 | 65 | 349 | 8.7 | 15.6 | 0.00 | 0.00 | 0.00 | 73 | 1006.8 |
| 20260506140047 | 65 | 346 | 8.7 | 14.8 | 0.00 | 0.00 | 0.00 | 72 | 1006.9 |
| 20260506135546 | 65 | 355 | 8.7 | 16.5 | 0.00 | 0.00 | 0.00 | 70 | 1007.0 |
| 20260506135048 | 65 | 19 | 8.7 | 16.5 | 0.00 | 0.00 | 0.00 | 72 | 1007.0 |
| 20260506134546 | 65 | 15 | 7.8 | 14.8 | 0.00 | 0.00 | 0.00 | 72 | 1007.1 |
| 20260506134357 | 65 | 331 | 8.7 | 15.6 | 0.00 | 0.00 | 0.00 | 73 | 1007.0 |
| 20260506133547 | 65 | 339 | 9.6 | 15.6 | 0.00 | 0.00 | 0.00 | 74 | 1007.2 |
| 20260506133041 | 65 | 332 | 9.6 | 13.9 | 0.00 | 0.00 | 0.00 | 74 | 1007.2 |
| 20260506132532 | 65 | 329 | 8.7 | 14.8 | 0.00 | 0.00 | 0.00 | 75 | 1007.3 |
| 20260506132029 | 65 | 0 | 9.6 | 15.6 | 0.00 | 0.00 | 0.00 | 77 | 1007.3 |
| 20260506131900 | 64 | 323 | 9.6 | 15.6 | 0.00 | 0.00 | 0.00 | 76 | 1007.4 |
| 20260506131029 | 64 | 344 | 8.7 | 13.9 | 0.00 | 0.00 | 0.00 | 77 | 1007.4 |
| 20260506130530 | 63 | 306 | 9.6 | 18.2 | 0.00 | 0.00 | 0.00 | 79 | 1007.4 |
| 20260506130030 | 63 | 350 | 10.4 | 18.2 | 0.00 | 0.00 | 0.00 | 79 | 1007.4 |
| 20260506125529 | 63 | 317 | 10.4 | 18.2 | 0.00 | 0.00 | 0.00 | 78 | 1007.4 |
| 20260506125029 | 63 | 334 | 10.4 | 19.1 | 0.00 | 0.00 | 0.00 | 81 | 1007.6 |
| 20260506124532 | 62 | 340 | 11.3 | 19.1 | 0.00 | 0.00 | 0.00 | 80 | 1007.6 |
| 20260506124343 | 62 | 355 | 11.3 | 20.0 | 0.00 | 0.00 | 0.00 | 79 | 1007.7 |
| 20260506123530 | 62 | 342 | 11.3 | 20.0 | 0.00 | 0.00 | 0.00 | 81 | 1007.7 |
| 20260506123031 | 62 | 355 | 10.4 | 17.4 | 0.00 | 0.00 | 0.00 | 81 | 1007.7 |
| 20260506122531 | 62 | 317 | 9.6 | 15.6 | 0.00 | 0.00 | 0.00 | 81 | 1007.8 |
| 20260506122030 | 62 | 335 | 8.7 | 14.8 | 0.00 | 0.00 | 0.00 | 81 | 1007.8 |
| 20260506121529 | 62 | 321 | 8.7 | 14.8 | 0.00 | 0.00 | 0.00 | 81 | 1007.9 |
| 20260506121337 | 63 | 347 | 8.7 | 14.8 | 0.00 | 0.00 | 0.00 | 80 | 1008.0 |
| 20260506120530 | 63 | 325 | 8.7 | 16.5 | 0.00 | 0.00 | 0.00 | 81 | 1008.0 |
| 20260506120029 | 63 | 318 | 8.7 | 16.5 | 0.00 | 0.00 | 0.00 | 81 | 1008.1 |
| 20260506115518 | 62 | 302 | 10.4 | 15.6 | 0.00 | 0.00 | 0.00 | 81 | 1008.0 |
| 20260506115333 | 63 | 321 | 10.4 | 15.6 | 0.00 | 0.00 | 0.00 | 80 | 1008.0 |
| 20260506114518 | 63 | 321 | 9.6 | 14.8 | 0.00 | 0.00 | 0.00 | 78 | 1008.1 |
| 20260506114017 | 63 | 299 | 7.8 | 14.8 | 0.00 | 0.00 | 0.00 | 78 | 1008.1 |
| 20260506113518 | 64 | 300 | 7.0 | 12.2 | 0.00 | 0.00 | 0.00 | 79 | 1008.2 |
| 20260506113019 | 63 | 300 | 7.8 | 13.9 | 0.00 | 0.00 | 0.00 | 78 | 1008.2 |
| 20260506112519 | 63 | 325 | 8.7 | 13.9 | 0.00 | 0.00 | 0.00 | 80 | 1008.2 |
| 20260506112017 | 63 | 305 | 7.8 | 13.9 | 0.00 | 0.00 | 0.00 | 79 | 1008.3 |
| 20260506111902 | 63 | 336 | 8.7 | 13.9 | 0.00 | 0.00 | 0.00 | 79 | 1008.3 |
| 20260506111015 | 63 | 328 | 7.8 | 13.9 | 0.00 | 0.00 | 0.00 | 79 | 1008.3 |
| 20260506110501 | 63 | 338 | 7.0 | 12.2 | 0.00 | 0.00 | 0.00 | 82 | 1008.3 |
| 20260506110002 | 62 | 322 | 7.8 | 13.0 | 0.00 | 0.00 | 0.00 | 83 | 1008.4 |
| 20260506105502 | 61 | 342 | 7.0 | 13.0 | 0.00 | 0.00 | 0.00 | 82 | 1008.5 |
| 20260506105002 | 61 | 349 | 7.0 | 12.2 | 0.00 | 0.00 | 0.00 | 83 | 1008.5 |
| 20260506104659 | 61 | 0 | 7.8 | 15.6 | 0.00 | 0.00 | 0.00 | 82 | 1008.3 |
| 20260506104559 | 61 | 0 | 8.7 | 15.6 | 0.00 | 0.00 | 0.00 | 82 | 1008.4 |
| 20260506103502 | 61 | 344 | 7.8 | 13.0 | 0.00 | 0.00 | 0.00 | 84 | 1008.3 |
| 20260506103318 | 61 | 331 | 8.7 | 13.0 | 0.00 | 0.00 | 0.00 | 83 | 1008.4 |
| 20260506102503 | 61 | 317 | 8.7 | 13.0 | 0.00 | 0.00 | 0.00 | 83 | 1008.4 |
| 20260506101957 | 61 | 333 | 9.6 | 15.6 | 0.00 | 0.00 | 0.00 | 84 | 1008.4 |
| 20260506101446 | 60 | 318 | 9.6 | 15.6 | 0.00 | 0.00 | 0.00 | 84 | 1008.4 |
| 20260506100933 | 60 | 308 | 8.7 | 13.9 | 0.00 | 0.00 | 0.00 | 85 | 1008.4 |
| 20260506100434 | 60 | 338 | 7.8 | 12.2 | 0.00 | 0.00 | 0.00 | 86 | 1008.4 |
| 20260506095935 | 59 | 317 | 7.0 | 16.5 | 0.00 | 0.00 | 0.00 | 86 | 1008.5 |
| 20260506095435 | 59 | 319 | 8.7 | 16.5 | 0.00 | 0.00 | 0.00 | 86 | 1008.4 |
| 20260506094935 | 59 | 317 | 9.6 | 16.5 | 0.00 | 0.00 | 0.00 | 86 | 1008.5 |
| 20260506094435 | 59 | 325 | 9.6 | 16.5 | 0.00 | 0.00 | 0.00 | 85 | 1008.5 |
| 20260506093935 | 60 | 286 | 8.7 | 16.5 | 0.00 | 0.00 | 0.00 | 84 | 1008.5 |
| 20260506093435 | 61 | 275 | 7.8 | 13.9 | 0.00 | 0.00 | 0.00 | 83 | 1008.4 |
| 20260506093251 | 62 | 327 | 8.7 | 13.9 | 0.00 | 0.00 | 0.00 | 82 | 1008.4 |
| 20260506092430 | 62 | 299 | 8.7 | 13.9 | 0.00 | 0.00 | 0.00 | 79 | 1008.3 |
| 20260506091931 | 62 | 345 | 7.8 | 13.0 | 0.00 | 0.00 | 0.00 | 76 | 1008.2 |
| 20260506091434 | 62 | 5 | 8.7 | 13.0 | 0.00 | 0.00 | 0.00 | 77 | 1008.3 |
| 20260506090930 | 61 | 10 | 7.8 | 13.0 | 0.00 | 0.00 | 0.00 | 77 | 1008.3 |
| 20260506090430 | 61 | 5 | 7.8 | 12.2 | 0.00 | 0.00 | 0.00 | 76 | 1008.2 |
| 20260506085931 | 62 | 9 | 7.8 | 13.9 | 0.00 | 0.00 | 0.00 | 77 | 1008.3 |
| 20260506085430 | 61 | 41 | 8.7 | 13.9 | 0.00 | 0.00 | 0.00 | 77 | 1008.3 |
| 20260506084933 | 61 | 16 | 7.8 | 13.9 | 0.00 | 0.00 | 0.00 | 78 | 1008.3 |
| 20260506084430 | 61 | 355 | 6.1 | 13.0 | 0.00 | 0.00 | 0.00 | 79 | 1008.2 |
| 20260506083930 | 61 | 11 | 5.2 | 8.7 | 0.00 | 0.00 | 0.00 | 80 | 1008.2 |
| 20260506083738 | 60 | 355 | 6.1 | 9.6 | 0.00 | 0.00 | 0.00 | 80 | 1008.2 |
| 20260506082930 | 60 | 0 | 6.1 | 9.6 | 0.00 | 0.00 | 0.00 | 81 | 1008.2 |
| 20260506082430 | 60 | 25 | 5.2 | 9.6 | 0.00 | 0.00 | 0.00 | 82 | 1008.2 |
| 20260506081931 | 60 | 5 | 6.1 | 11.3 | 0.00 | 0.00 | 0.00 | 83 | 1008.2 |
| 20260506081429 | 60 | 29 | 6.1 | 11.3 | 0.00 | 0.00 | 0.00 | 84 | 1008.2 |
| 20260506080929 | 60 | 9 | 5.2 | 8.7 | 0.00 | 0.00 | 0.00 | 85 | 1008.3 |
| 20260506080430 | 59 | 24 | 6.1 | 11.3 | 0.00 | 0.00 | 0.00 | 86 | 1008.3 |